Flag for Guatemala Weather past 2 weeks in Guatemala, Guatemala

Now
63 °F

Scattered clouds.


Feels Like: 63 °F
Forecast: 61 / 77 °F
Wind: 9 mph from North

Location: Guatemala Aeropuertola Aurora

Current Time: Jul 28, 2014 at 6:27:27 AM

Latest Report: Jul 28, 2014 at 6:00 AM


Visibility: N/A

Pressure: 30.33 "Hg

Humidity: 88%

Dew point: 59 °F

Location of GuatemalaLocation

Historic Weather in Guatemala — Graph

°F

Guatemala temperature yesterday

Maximum temperature yesterday: 79 °F (at 2:00 PM)
Minimum temperature yesterday: 63 °F (at 4:00 AM)
Average temperature yesterday: 69 °F

Past Weeks' High & Low Weather Summary

 TemperatureHumidityPressure
High82 °F (Jul 17, 2:00 PM)100% (Jul 14, 11:00 PM)30.39 "Hg (Jul 14, 11:00 PM)
Low59 °F (Jul 25, 5:00 AM)45% (Jul 24, 3:00 PM)30.18 "Hg (Jul 15, 6:00 PM)
Average69 °F77%30.30 "Hg
* Reported Jul 13 5:00 AM — Jul 28 5:00 AM, Guatemala, Weather by CustomWeather, © 2014

Note: Actual official high and low records may vary slightly from our data, if they occured in-between our weather recording intervals... More about our weather records

Advertising

Guatemala weather history for previous 24 hours

 ConditionsComfort  
Time TempWeatherWind HumidityBarometerVisibility
5:00 AM
Jul 28
61 °FPassing clouds.12 mph94%30.30 "HgN/A
4:00 AM61 °FPassing clouds.12 mph94%30.30 "HgN/A
3:00 AM63 °FPassing clouds.12 mph88%30.30 "HgN/A
2:00 AM63 °FPassing clouds.12 mph88%30.33 "HgN/A
1:00 AM63 °FPassing clouds.16 mph88%30.36 "HgN/A
12:00 AM63 °FMild.5 mph94%30.39 "HgN/A
11:00 PM
Jul 27
64 °FPassing clouds.14 mph88%30.36 "HgN/A
10:00 PM64 °FPassing clouds.14 mph88%30.36 "HgN/A
9:00 PM66 °FPassing clouds.14 mph88%30.36 "HgN/A
8:00 PM70 °FPassing clouds.14 mph73%30.36 "HgN/A
7:00 PM72 °FPassing clouds.14 mph69%30.33 "HgN/A
6:00 PM73 °FPartly sunny.21 mph65%30.30 "HgN/A
5:00 PM75 °FScattered clouds.14 mph69%30.27 "HgN/A
4:00 PM77 °FScattered clouds.14 mph54%30.27 "HgN/A
3:00 PM77 °FPassing clouds.12 mph54%30.27 "HgN/A
2:00 PM79 °FPassing clouds.14 mph51%30.30 "HgN/A
1:00 PM77 °FScattered clouds.16 mph51%30.33 "HgN/A
12:00 PM75 °FScattered clouds.21 mph57%30.33 "HgN/A
11:00 AM73 °FScattered clouds.14 mph61%30.36 "HgN/A
10:00 AM70 °FScattered clouds.14 mph73%30.36 "HgN/A
9:00 AM68 °FPartly sunny.16 mph78%30.36 "HgN/A
8:00 AM66 °FScattered clouds.12 mph83%30.36 "HgN/A
7:00 AM64 °FScattered clouds.7 mph83%30.36 "HgN/A
6:00 AM63 °FScattered clouds.7 mph94%30.33 "HgN/A
Weather by CustomWeather, © 2014

See weather overviewHow to use our weather pages